Flag for U.S.A. Weather past 2 weeks in Odessa, Texas, U.S.A.

Now
78 °F

Sunny.


Feels Like: 79 °F
Forecast: 74 / 93 °F
Wind: 16 mph from South

Location: Odessa-Schlemeyer Field

Current Time: Aug 23, 2014 at 11:06:53 AM

Latest Report: Aug 23, 2014 at 9:53 AM


Visibility: 10 mi

Pressure: 29.90 "Hg

Humidity: 48%

Dew point: 57 °F

Location of OdessaLocation

Historic Weather in Odessa — Graph

°F

Odessa temperature yesterday

Maximum temperature yesterday: 95 °F (at 4:53 PM)
Minimum temperature yesterday: 73 °F (at 6:53 AM)
Average temperature yesterday: 84 °F

Past Weeks' High & Low Weather Summary

 TemperatureHumidityPressure
High99 °F (Aug 8, 4:53 PM)90% (Aug 18, 5:53 AM)30.12 "Hg (Aug 18, 5:53 AM)
Low69 °F (Aug 13, 6:53 AM)17% (Aug 9, 4:53 PM)29.69 "Hg (Aug 19, 6:53 PM)
Average82 °F49%29.90 "Hg
* Reported Aug 8 9:53 AM — Aug 23 9:53 AM, Odessa, Weather by CustomWeather, © 2014

Note: Actual official high and low records may vary slightly from our data, if they occured in-between our weather recording intervals... More about our weather records

Advertising

Odessa weather history for previous 24 hours

 ConditionsComfort  
Time TempWeatherWind HumidityBarometerVisibility
9:53 AM
Aug 23
78 °FSunny.16 mph48%29.90 "Hg10 mi
8:53 AM76 °FSunny.9 mph47%29.90 "Hg10 mi
7:53 AM75 °FClear.8 mph42%29.90 "Hg10 mi
6:53 AM76 °FPassing clouds.9 mph39%29.88 "Hg10 mi
5:53 AM76 °FClear.13 mph35%29.87 "Hg10 mi
4:53 AM76 °FClear.9 mph35%29.87 "Hg10 mi
3:53 AM75 °FClear.9 mph40%29.88 "Hg10 mi
2:53 AM76 °FClear.7 mph40%29.88 "Hg10 mi
1:53 AM79 °FClear.8 mph35%29.89 "Hg10 mi
12:53 AM81 °FClear.9 mph37%29.89 "Hg10 mi
11:53 PM
Aug 22
84 °FPassing clouds.8 mph33%29.88 "Hg10 mi
10:53 PM86 °FPassing clouds.12 mph33%29.88 "Hg10 mi
9:53 PM87 °FClear.21 mph33%29.85 "Hg10 mi
8:53 PM88 °FSunny.10 mph30%29.83 "Hg10 mi
7:53 PM91 °FSunny.12 mph26%29.81 "Hg10 mi
6:53 PM93 °FSunny.14 mph26%29.80 "Hg10 mi
5:53 PM94 °FSunny.13 mph27%29.81 "Hg10 mi
4:53 PM95 °FSunny.15 mph29%29.83 "Hg10 mi
3:53 PM93 °FSunny.8 mph30%29.85 "Hg10 mi
2:53 PM92 °FSunny.N/A33%29.88 "Hg10 mi
1:53 PM89 °FSunny.7 mph39%29.90 "Hg10 mi
12:53 PM85 °FSunny.8 mph46%29.93 "Hg10 mi
11:53 AM83 °FSunny.12 mph50%29.95 "Hg10 mi
Weather by CustomWeather, © 2014

See weather overviewHow to use our weather pages